Regional Weather Roundup
Issued by NWS

Home | Current Version | Previous Version | Text Only | Print | Product List | Glossary On
Versions: 1 2 3 4 5 6 7 8 9 10 11 12 13 14 15 16 17 18 19 20 21 22 23 24 25 26 27 28 29 30 31 32 33 34 35 36 37 38 39 40 41 42 43 44 45 46 47 48 49 50
000
ASUS42 KKEY 051710
RWRKEY

FLORIDA REGIONAL WEATHER ROUNDUP FOR THE FLORIDA KEYS
NATIONAL WEATHER SERVICE KEY WEST FLORIDA
100 PM EDT SUN JUL 05 2015

...SOUTH FLORIDA AND THE KEYS...

CITY           SKY/WX    TMP DP  RH WIND       PRES   REMARKS
FORT MYERS     MOSUNNY   90  74  59 SE8       30.14F HX  99
SW REGIONAL AP MOSUNNY   91  74  57 E8        30.15F HX 100
NAPLES         CLOUDY    88  76  67 SE7       30.15F HX  99
MIAMI          MOSUNNY   90  71  53 SE8       30.17F HX  96
WEST KENDALL   MOSUNNY   90  73  57 E10       30.16F HX  98
HOMESTEAD      PTSUNNY   89  74  60 E12       30.16F HX  98
MARATHON       MOSUNNY   91  77  63 E10       30.15F HX 104
BOCA CHICA NAS MOSUNNY   90  76  63 E12       30.14F HX 101
KEY WEST INTL  MOSUNNY   90  78  68 SE14      30.15S HX 104

...INTERNATIONAL WEATHER...

CITY           SKY/WX    TMP DP  RH WIND       PRES   REMARKS
NASSAU BAHAMAS PTSUNNY   88  73  62 E10       30.18  HX  96
CANCUN MEXICO  PTSUNNY   88  77  70 NE9       30.09S HX 100
COZUMEL MEXICO PTSUNNY   86  75  70 E12       30.09S HX  95

ADJACENT COASTAL WATERS...

STATION/POSITION TIME  SKY/WX   TEMP    WIND        PRES    WAVE
                                AIR SEA DIR/SP/G            HT/PER
                 (UTC)          (F)     (DEG/KT/KT) (MB)    (FT/S)
PULASKI SHOAL LI 1600            85     130/  8/  9 1021.1R
SAND KEY         1650            85     110/ 12/ 14 1020.7F
SOMBRERO KEY     1600            85     100/ 12/ 13 1021.8R
LONG KEY         1600            85 87  110/  9/ 11 1022.2R
MOLASSES REEF    1600            84 86  120/ 10/ 12 1021.5R
FOWEY ROCKS      NOT AVBL

$$


USA.gov is the U.S. government's official web portal to all federal, state and local government web resources and services.